Location: Cruquius
(52.3348°N, 4.6319°E)
Time: 20:47:56
(UTC+00:00)

BREEZE-M DEB (TANK) - Pass Details

Date: 12 May 2021
Orbit: 320 x 13078 km, 49.7° (Epoch: 21 June)

Event Time Altitude Azimuth Distance (km) Brightness Sun altitude
Rises 23:24:30 0° 291° (WNW) 9,073 9.3 -19.2°
Reaches altitude 10° 23:33:14 10° 288° (WNW) 5,990 8.3 -19.3°
Maximum altitude 23:45:08 39° 226° (SW) 1,590 4.7 -19.3°
Enters shadow 23:46:35 34° 193° (SSW) 1,477 4.4 -19.3°
